Regional Weather Roundup
Issued by NWS State College, PA

Home | Current Version | Previous Version | Text Only | Print | Product List | Glossary On
Versions: 1 2 3 4 5 6 7 8 9 10 11 12 13 14 15 16 17 18 19 20 21 22 23 24 25 26 27 28 29 30 31 32 33 34 35 36 37 38 39 40 41 42 43 44 45 46 47 48 49 50
000
ASUS41 KCTP 032210
RWRCTP

REGIONAL WEATHER ROUNDUP
NATIONAL WEATHER SERVICE STATE COLLEGE PA
600 PM EDT TUE MAY 03 2016

Note: "fair" indicates few or no clouds below 12,000 feet with no
significant weather and/or obstructions to visibility.

* = STATION THAT DOES NOT REPORT PRECIPITATION /E.G. RAIN...SNOW...ETC/
    THUNDER OR FOG.

PAZ002>004-007>009-013>016-020>023-029>032-032300-
WESTERN PENNSYLVANIA

CITY           SKY/WX    TMP DP  RH WIND       PRES   REMARKS
ERIE           SUNNY     50  41  71 W9        29.84S
MEADVILLE      PTSUNNY   54  42  64 NW12      29.80S
FRANKLIN*      MOSUNNY   57  39  51 NW6       29.81S
NEW CASTLE     CLOUDY    60  41  49 VRB6      29.80F
BEAVER COUNTY  PTSUNNY   61  41  48 NW5       29.79F
BUTLER*        CLOUDY    59  41  51 W9        29.82S
PITTSBURGH INT PTSUNNY   61  40  45 W7        29.79S
PITTSBURGH     CLOUDY    62  41  46 W8        29.78S
INDIANA*       CLOUDY    61  43  51 NW6G13    29.81S
LATROBE        CLOUDY    61  45  55 W7        29.79S
WASHINGTON CO* CLOUDY    57  45  62 W7        29.81S
$$

PAZ004>006-010>012-017>019-024>028-033>037-041-042-045-046-049>053-032300-
CENTRAL PENNSYLVANIA

CITY           SKY/WX    TMP DP  RH WIND       PRES   REMARKS
BRADFORD       CLOUDY    49  44  83 N9        29.79S
DUBOIS         PTSUNNY   58  39  49 W12       29.76S
CLEARFIELD     PTSUNNY   63  38  39 SW10      29.76F
JOHNSTOWN      CLOUDY    57  43  59 SW6       29.78S
ALTOONA        CLOUDY    63  43  48 NW10      29.77R
STATE COLLEGE  CLOUDY    59  50  72 NE6       29.76S
WILLIAMSPORT   CLOUDY    57  48  72 SE5       29.78F
SELINSGROVE    CLOUDY    57  51  80 NE7       29.79S
FT INDIANTOWN  PTSUNNY   60  55  84 E6        29.78S
CAPITAL CITY   MOSUNNY   65  53  65 E7        29.76F
HARRISBURG     PTSUNNY   63  55  75 SE8       29.76F
YORK           MOSUNNY   62  53  72 E8        29.77R
$$

PAZ038>040-043-044-047-048-054-055-060>062-067>071-032300-
EASTERN PENNSYLVANIA

CITY           SKY/WX    TMP DP  RH WIND       PRES   REMARKS
SCRANTON       CLOUDY    50  49  96 W6        29.80S FOG
MOUNT POCONO   CLOUDY    49  46  90 CALM      29.79F
ALLENTOWN      CLOUDY    56  51  84 E3        29.81R
QUAKERTOWN*    CLOUDY    55  54  94 CALM      29.81S
READING        CLOUDY    58  51  78 NE3       29.79S
LANCASTER      CLOUDY    58  54  86 SE6       29.79R
COATESVILLE    CLOUDY    57 N/A N/A NE10      29.81R
POTTSTOWN      CLOUDY    55  53  93 E3        29.81S
BLUE BELL      CLOUDY    54  52  94 E3        29.80S
DOYLESTOWN     CLOUDY    53  52  96 CALM      29.80S
WILLOW GROVE   NOT AVBL
NORTH PHILA    CLOUDY    57  52  83 SE7       29.83R
PHILADELPHIA   CLOUDY    57  51  80 NE7       29.81R
$$




USA.gov is the U.S. government's official web portal to all federal, state and local government web resources and services.